Weather Roundup
Issued by NWS Springfield, MO

Home | Current Version | Previous Version | Text Only | Print | Product List | Glossary On
Versions: 1 2 3 4 5 6 7 8 9 10 11 12 13 14 15 16 17 18 19 20 21 22 23 24 25 26 27 28 29 30 31 32 33 34 35 36 37 38 39 40 41 42 43 44 45 46 47 48 49 50
000
NZUS99 KSGF 292207
HRRSGF

HOURLY WEATHER
NATIONAL WEATHER SERVICE SPRINGFIELD MO
500 PM CDT SUN MAR 29 2015

......SGF CWA......

CITY           SKY/WX    TMP DP  RH WIND       PRES   REMARKS
SPRINGFIELD    CLOUDY    58  43  57 NW12      30.01S
JOPLIN         PTSUNNY   61  43  51 NW7       30.03F
WEST PLAINS    PTSUNNY   62  42  47 W7        30.00S
ROLLA          PTSUNNY   55  39  54 W15       29.96F
OSAGE BEACH    PTSUNNY   61  39  44 W10       29.99F

......SURROUNDING SGF CWA......

CITY           SKY/WX    TMP DP  RH WIND       PRES   REMARKS
CHANUTE        PTSUNNY   71  38  29 N12       30.01S
PARSONS        MOSUNNY   65  45  48 CALM      30.03F
COFFEYVILLE    MOSUNNY   63  44  50 SE5       30.02F
EMPORIA        MOSUNNY   70  37  29 NW21G31   30.02R
GROVE OK       CLOUDY    61  45  55 NW6       30.05R
ROGERS AR      CLOUDY    63  45  51 W16       30.04R
SILOAM SPRINGS CLOUDY    61  43  51 N12       30.03F
HARRISON AR    MOSUNNY   69  44  40 NW14G21   29.98R
NEAR YELLVILLE MOSUNNY   70  45  40 E7        29.97R

......KANSAS AND MISSOURI......

CITY           SKY/WX    TMP DP  RH WIND       PRES   REMARKS
KANSAS CTY INT MOSUNNY   65  42  43 NW20G28   30.00R
DOWNTOWN KC    MOSUNNY   68  40  35 NW15G25   29.98R
COLUMBIA       CLOUDY    58  41  53 W13       29.98S
SEDALIA        CLOUDY    62  42  47 W9        29.98F
ST JOSEPH      SUNNY     62  40  44 NW22      30.02R
ST LOUIS       CLOUDY    57  44  62 W12       29.95F
SPIRIT OF STL  CLOUDY    56  42  59 W12       29.95S
KIRKSVILLE     LGT RAIN  62  40  44 NW23G33   29.92R
WICHITA        MOSUNNY   74  34  23 N18G26    30.05R
TOPEKA         SUNNY     67  40  37 NW24G32   30.03R
OLATHE         MOSUNNY   67  41  38 NW17G24   29.99R

......TENNESSEE......

CITY           SKY/WX    TMP DP  RH WIND       PRES   REMARKS
MEMPHIS        SUNNY     70  47  43 S16G25    30.03F
NASHVILLE      PTSUNNY   62  32  32 S15G28    30.10F

......ARKANSAS.......

CITY           SKY/WX    TMP DP  RH WIND       PRES   REMARKS
FAYETTEVILLE   CLOUDY    65  47  52 W9        30.01S
FT SMITH       MOSUNNY   73  45  36 CALM      29.99F
LITTLE ROCK    MOSUNNY   79  47  32 SW12      29.97F

......OKLAHOMA.......

CITY           SKY/WX    TMP DP  RH WIND       PRES   REMARKS
TULSA          CLOUDY    70  42  36 N8G16     30.04R
PONCA CITY     PTSUNNY   74  33  22 N16       30.04R
MCALESTER      MOSUNNY   79  48  33 NW8       30.00S
OKLAHOMA CITY  MOSUNNY   76  39  26 N18       30.03S

......IOWA............

CITY           SKY/WX    TMP DP  RH WIND       PRES   REMARKS
DES MOINES     MOSUNNY   63  27  25 N24G37    29.93R
QUAD CITIES    CLOUDY    55  40  56 SW18      29.79S

......ILLINOIS........

CITY           SKY/WX    TMP DP  RH WIND       PRES   REMARKS
QUINCY         PTSUNNY   58  39  49 W12G24    29.90F
CHICAGO        MOSUNNY   45  33  63 SW18G30   29.76F



USA.gov is the U.S. government's official web portal to all federal, state and local government web resources and services.